�N����,����,�~����,�C��,���x,�C��,����,���ϕ���,�ő�u�ԕ���,�ő厞����,���˗�,�I�_���x,�n�����x,�ő啗���N��,DTYPE
"21/08/09","00:10",0.0,26.1,85.7,995.6,319.6,1.0,1.8,344.6,0.00,23.6,27.9,"00:04:40",1
"21/08/09","00:20",0.0,26.1,85.9,995.1,327.1,0.7,1.0,352.4,0.00,23.6,27.9,"00:11:20",1
"21/08/09","00:30",0.0,26.0,86.3,994.8,345.3,0.8,1.6,341.1,0.00,23.6,27.9,"00:23:12",1
"21/08/09","00:40",0.0,25.9,86.7,994.8,288.5,0.8,1.2,327.8,0.00,23.6,27.7,"00:32:24",1
"21/08/09","00:50",0.0,25.9,86.9,994.8,288.0,0.5,1.0,304.2,0.00,23.6,27.8,"00:40:40",1
"21/08/09","01:00",0.0,26.0,87.1,994.6,321.8,0.8,1.3,334.2,0.00,23.7,27.7,"00:55:12",1
"21/08/09","01:10",0.0,26.1,87.2,994.4,337.5,0.8,1.2,330.5,0.00,23.8,27.8,"01:03:04",1
"21/08/09","01:20",0.0,26.1,87.2,994.4,328.9,0.7,1.2,334.1,0.00,23.8,27.4,"01:10:56",1
"21/08/09","01:30",0.0,26.1,87.4,993.7,345.4,0.8,1.9,349.1,0.00,23.9,27.8,"01:29:44",1
"21/08/09","01:40",0.0,25.9,87.5,993.4,272.0,0.8,1.6,335.2,0.00,23.7,27.6,"01:31:28",1
"21/08/09","01:50",0.0,26.2,87.8,993.2,191.0,0.7,1.6,245.2,0.00,24.1,27.7,"01:40:32",1
"21/08/09","02:00",0.0,26.8,87.4,993.0,157.5,0.8,1.7,199.6,0.00,24.6,27.5,"01:50:16",1
"21/08/09","02:10",0.0,26.6,87.1,992.7,357.4,0.8,3.2,353.3,0.00,24.3,27.7,"02:05:20",1
"21/08/09","02:20",0.4,26.4,87.2,992.0,309.0,0.7,1.2,263.9,0.00,24.1,27.6,"02:10:24",1
"21/08/09","02:30",0.4,26.2,87.6,991.8,261.2,0.6,1.6,251.0,0.00,24.0,27.6,"02:20:32",1
"21/08/09","02:40",0.2,26.3,88.0,991.3,260.2,1.1,3.2,228.3,0.00,24.2,27.4,"02:33:44",1
"21/08/09","02:50",0.0,26.7,88.2,991.3,17.6,0.8,2.5,47.0,0.00,24.6,27.6,"02:46:56",1
"21/08/09","03:00",0.0,26.8,88.2,991.1,0.6,0.6,1.4,106.4,0.00,24.7,27.5,"02:51:28",1
"21/08/09","03:10",0.4,26.8,88.1,991.5,218.1,0.8,2.1,232.6,0.00,24.7,27.5,"03:03:04",1
"21/08/09","03:20",2.0,26.6,88.2,990.6,72.2,1.0,2.7,41.7,0.00,24.5,27.4,"03:17:04",1
"21/08/09","03:30",1.0,26.4,88.4,990.8,60.5,0.7,2.0,159.6,0.00,24.4,27.3,"03:27:36",1
"21/08/09","03:40",2.8,26.4,88.8,991.1,184.0,1.1,2.2,147.6,0.00,24.4,27.2,"03:38:48",1
"21/08/09","03:50",1.6,26.3,89.1,990.4,135.5,0.7,2.8,155.1,0.00,24.4,27.3,"03:48:50",1
"21/08/09","04:00",0.4,26.2,89.4,990.1,181.9,0.8,2.0,164.2,0.00,24.4,27.2,"03:52:16",1
"21/08/09","04:10",1.2,26.3,89.8,990.1,214.4,1.5,2.7,240.0,0.00,24.5,27.1,"04:09:36",1
"21/08/09","04:20",4.6,26.1,90.0,990.1,134.3,0.6,1.9,232.2,0.00,24.4,27.2,"04:11:44",1
"21/08/09","04:30",1.2,26.0,90.4,990.1,66.7,0.3,1.1,72.5,0.00,24.3,27.1,"04:28:48",1
"21/08/09","04:40",3.6,26.0,90.7,989.4,100.0,0.8,1.8,116.1,0.00,24.4,26.8,"04:30:56",1
"21/08/09","04:50",0.8,25.9,91.1,989.4,169.4,0.8,2.0,180.7,0.00,24.4,26.9,"04:48:00",1
"21/08/09","05:00",0.8,26.0,91.4,988.9,162.7,1.5,3.2,130.1,0.00,24.5,26.8,"04:50:48",1
"21/08/09","05:10",0.0,25.9,91.7,988.7,164.0,1.1,2.7,141.1,0.00,24.5,26.9,"05:01:04",1
"21/08/09","05:20",0.2,25.9,91.8,988.2,185.4,0.7,1.8,212.7,0.00,24.5,27.0,"05:16:24",1
"21/08/09","05:30",0.0,26.0,92.0,988.2,206.3,0.7,1.3,237.0,0.00,24.6,26.9,"05:24:56",1
"21/08/09","05:40",0.0,26.0,92.1,988.2,275.4,0.6,1.3,332.8,0.00,24.7,26.8,"05:30:32",1
"21/08/09","05:50",0.0,26.0,92.3,988.2,295.9,0.6,1.2,252.1,0.00,24.7,26.8,"05:43:44",1
"21/08/09","06:00",0.0,26.0,92.4,987.8,347.9,0.2,1.1,46.4,0.00,24.7,26.8,"05:55:44",1
"21/08/09","06:10",0.0,25.9,92.6,987.5,248.6,0.6,1.4,234.2,0.00,24.6,27.0,"06:06:48",1
"21/08/09","06:20",0.0,26.2,92.7,987.3,262.5,0.5,1.1,238.0,0.02,25.0,26.8,"06:14:48",1
"21/08/09","06:30",0.0,26.4,92.8,987.3,340.4,0.3,1.4,324.8,0.04,25.2,26.9,"06:23:44",1
"21/08/09","06:40",0.0,26.7,93.0,986.8,285.5,0.5,1.4,334.0,0.06,25.5,26.9,"06:36:32",1
"21/08/09","06:50",0.0,27.2,92.9,986.8,306.3,0.5,1.6,338.0,0.10,26.0,26.9,"06:48:24",1
"21/08/09","07:00",0.0,27.7,93.0,986.3,330.4,0.5,1.2,341.8,0.12,26.5,26.9,"06:53:44",1
"21/08/09","07:10",0.0,28.3,93.0,986.1,9.1,0.3,1.2,350.2,0.13,27.1,26.8,"07:00:48",1
"21/08/09","07:20",0.0,28.6,92.4,985.9,203.1,0.2,1.0,226.6,0.12,27.3,27.1,"07:19:04",1
"21/08/09","07:30",0.0,27.8,91.8,985.9,167.8,1.2,2.8,241.1,0.08,26.4,26.9,"07:22:32",1
"21/08/09","07:40",0.0,27.8,91.6,985.6,214.5,1.1,2.9,98.3,0.06,26.3,27.0,"07:35:04",1
"21/08/09","07:50",0.0,27.6,91.1,985.4,162.2,1.6,3.4,130.0,0.07,26.1,26.9,"07:46:56",1
"21/08/09","08:00",0.0,28.0,90.4,985.6,151.4,1.2,2.7,197.0,0.08,26.3,26.9,"07:51:28",1
"21/08/09","08:10",0.0,28.2,89.3,984.9,145.5,1.2,2.8,129.3,0.11,26.3,27.1,"08:00:56",1
"21/08/09","08:20",0.0,28.8,88.0,984.9,139.6,1.5,3.3,153.0,0.15,26.7,27.1,"08:16:56",1
"21/08/09","08:30",0.0,29.1,85.0,984.4,135.1,1.6,3.6,95.8,0.14,26.4,27.2,"08:23:36",1
"21/08/09","08:40",0.0,30.0,81.7,983.7,141.5,1.8,4.9,124.2,0.20,26.6,27.0,"08:30:32",1
"21/08/09","08:50",0.0,30.1,76.9,983.7,147.1,1.8,4.9,137.1,0.12,25.6,27.2,"08:49:04",1
"21/08/09","09:00",0.0,30.2,74.0,983.5,157.0,1.8,3.9,61.7,0.06,25.1,27.0,"08:59:04",1
"21/08/09","09:10",0.0,30.4,72.8,982.8,148.0,2.1,9.0,116.8,0.04,25.0,27.2,"09:01:12",1
"21/08/09","09:20",0.0,30.4,70.9,983.3,167.5,2.3,5.4,155.2,0.04,24.6,27.2,"09:16:08",1
"21/08/09","09:30",0.0,30.4,70.2,982.8,174.4,2.0,4.1,106.9,0.02,24.4,27.2,"09:28:40",1
"21/08/09","09:40",0.0,30.3,69.8,982.8,163.7,2.1,4.4,203.2,0.01,24.2,27.2,"09:39:04",1
"21/08/09","09:50",0.0,30.4,69.4,982.6,182.0,2.2,4.4,165.4,0.00,24.2,27.2,"09:45:20",1
"21/08/09","10:00",0.0,30.1,71.4,982.6,211.6,1.3,3.3,241.9,0.00,24.4,27.2,"09:58:24",1
"21/08/09","10:10",0.0,29.7,73.9,982.3,236.9,1.5,3.1,221.5,0.00,24.6,27.2,"10:06:16",1
"21/08/09","10:20",0.0,29.6,75.0,982.6,192.3,1.5,4.2,222.5,0.02,24.7,27.1,"10:11:52",1
"21/08/09","10:30",0.0,29.4,75.6,983.0,216.6,2.6,6.5,223.2,0.02,24.7,27.1,"10:29:52",1
"21/08/09","10:40",1.4,28.1,78.5,983.7,202.1,3.1,7.9,202.9,0.00,24.0,27.2,"10:30:08",1
"21/08/09","10:50",0.0,27.6,80.1,984.0,205.3,2.6,6.4,217.8,0.00,23.9,27.1,"10:41:28",1
"21/08/09","11:00",0.2,27.4,81.0,984.4,200.0,2.0,7.4,184.1,0.01,23.9,27.2,"10:58:40",1
"21/08/09","11:10",0.0,27.0,82.0,984.7,195.1,3.1,6.3,142.0,0.05,23.7,27.2,"11:06:16",1
"21/08/09","11:20",0.2,26.7,83.5,984.7,193.9,2.5,5.1,236.4,0.03,23.7,27.1,"11:12:40",1
"21/08/09","11:30",0.8,26.6,84.9,984.7,195.5,2.3,5.6,180.2,0.07,23.9,27.0,"11:29:28",1
"21/08/09","11:40",0.2,26.7,85.5,984.4,186.2,2.8,5.7,180.2,0.08,24.1,27.2,"11:30:40",1
"21/08/09","11:50",0.0,26.7,85.7,984.7,194.9,3.0,5.2,238.6,0.12,24.1,27.1,"11:44:16",1
"21/08/09","12:00",0.0,27.1,85.3,984.2,202.4,4.0,8.5,194.8,0.27,24.5,27.0,"11:53:36",1
"21/08/09","12:10",0.6,26.6,83.8,984.9,204.4,2.8,5.6,179.0,0.07,23.7,27.0,"12:01:20",1
"21/08/09","12:20",1.8,26.1,85.6,984.4,191.3,2.3,5.8,195.6,0.02,23.5,27.0,"12:14:56",1
"21/08/09","12:30",0.4,26.0,87.0,984.0,203.0,2.7,6.4,230.4,0.03,23.7,26.8,"12:24:40",1
"21/08/09","12:40",2.6,25.6,87.5,984.7,181.2,4.1,7.8,195.9,0.04,23.4,26.6,"12:37:52",1
"21/08/09","12:50",0.6,25.6,87.8,984.4,203.4,2.7,8.1,206.2,0.05,23.5,26.6,"12:49:36",1
"21/08/09","13:00",1.0,25.4,88.0,984.9,197.3,4.1,8.5,205.2,0.06,23.3,26.6,"12:51:44",1
"21/08/09","13:10",0.4,25.3,87.8,984.9,209.4,5.0,13.4,226.7,0.15,23.2,26.6,"13:03:36",1
"21/08/09","13:20",0.4,25.2,87.2,985.2,211.9,4.1,9.7,211.2,0.12,23.0,26.7,"13:14:40",1
"21/08/09","13:30",0.2,25.1,87.0,985.2,214.4,3.6,8.5,212.4,0.06,22.8,26.6,"13:20:56",1
"21/08/09","13:40",0.8,25.3,87.1,985.4,198.6,3.4,8.2,225.1,0.11,23.0,26.4,"13:35:20",1
"21/08/09","13:50",0.2,25.7,87.5,985.6,193.6,2.6,5.4,207.0,0.21,23.5,26.5,"13:44:08",1
"21/08/09","14:00",0.2,25.5,87.0,985.4,195.5,3.0,8.8,210.1,0.19,23.2,26.5,"13:56:24",1
"21/08/09","14:10",0.0,25.5,87.2,985.9,194.2,2.5,6.7,200.9,0.16,23.3,26.6,"14:00:48",1
"21/08/09","14:20",0.0,25.7,87.4,985.9,229.6,2.3,5.7,356.5,0.21,23.5,26.4,"14:18:40",1
"21/08/09","14:30",0.0,25.6,86.7,985.9,208.4,2.0,5.8,225.8,0.13,23.3,26.6,"14:28:24",1
"21/08/09","14:40",0.2,25.4,86.5,986.1,214.6,2.2,5.2,240.0,0.07,23.0,26.8,"14:38:16",1
"21/08/09","14:50",0.0,25.6,86.0,986.3,230.8,2.6,6.2,241.9,0.08,23.1,26.5,"14:42:32",1
"21/08/09","15:00",0.0,25.8,84.7,986.3,234.7,2.6,7.0,237.9,0.09,23.1,26.6,"14:55:04",1
"21/08/09","15:10",0.0,26.1,83.4,986.6,228.1,3.1,5.8,241.0,0.07,23.1,26.6,"15:02:24",1
"21/08/09","15:20",0.0,26.5,81.9,986.3,245.5,3.1,9.8,282.6,0.14,23.2,26.5,"15:10:08",1
"21/08/09","15:30",0.0,27.0,79.5,986.3,236.6,3.7,12.6,231.4,0.14,23.2,26.7,"15:22:48",1
"21/08/09","15:40",0.0,27.0,77.8,986.8,236.3,2.5,7.3,231.4,0.10,22.8,26.6,"15:37:28",1
"21/08/09","15:50",0.0,27.2,77.3,986.6,242.5,2.8,7.5,200.3,0.08,22.9,26.6,"15:40:16",1
"21/08/09","16:00",0.0,27.3,76.4,987.3,260.8,2.5,8.6,228.9,0.07,22.8,26.7,"15:53:36",1
"21/08/09","16:10",0.0,27.3,76.2,987.5,234.9,2.7,8.6,220.8,0.05,22.8,26.7,"16:04:56",1
"21/08/09","16:20",0.0,27.3,76.1,987.8,247.2,2.6,6.4,245.0,0.04,22.8,26.6,"16:12:08",1
"21/08/09","16:30",0.0,27.2,76.1,987.8,251.8,1.6,6.3,204.7,0.05,22.7,26.5,"16:21:20",1
"21/08/09","16:40",0.0,27.3,75.8,987.8,252.1,2.3,7.2,244.9,0.04,22.7,26.7,"16:33:04",1
"21/08/09","16:50",0.0,27.4,76.1,987.8,242.4,1.7,5.9,222.1,0.03,22.9,26.7,"16:46:08",1
"21/08/09","17:00",0.0,27.3,75.8,988.5,240.1,2.8,7.1,213.3,0.01,22.7,26.6,"16:57:28",1
"21/08/09","17:10",0.0,27.2,75.7,988.5,259.1,2.6,5.7,237.6,0.00,22.6,26.6,"17:07:44",1
"21/08/09","17:20",0.0,27.2,75.6,988.7,265.6,1.8,5.0,240.8,0.00,22.6,26.4,"17:13:12",1
"21/08/09","17:30",0.0,27.0,76.0,989.2,256.3,1.7,5.7,215.4,0.00,22.4,26.6,"17:29:44",1
"21/08/09","17:40",0.0,27.0,75.8,989.2,264.2,2.7,9.1,219.6,0.00,22.4,26.6,"17:32:24",1
"21/08/09","17:50",0.0,27.0,75.9,989.6,249.8,2.7,7.2,232.8,0.00,22.4,26.6,"17:42:48",1
"21/08/09","18:00",0.0,27.0,76.2,989.6,250.8,1.5,3.1,281.0,0.00,22.5,26.4,"17:50:24",1
"21/08/09","18:10",0.0,26.9,76.3,989.6,236.8,1.8,3.7,227.1,0.00,22.4,26.7,"18:06:48",1
"21/08/09","18:20",0.0,26.8,77.0,989.9,283.6,1.5,3.6,344.3,0.00,22.5,26.7,"18:14:40",1
"21/08/09","18:30",0.0,26.4,78.1,990.4,280.4,1.2,4.7,239.7,0.00,22.3,26.6,"18:26:40",1
"21/08/09","18:40",0.0,26.5,78.9,990.4,249.1,1.2,2.8,232.6,0.00,22.6,26.4,"18:39:36",1
"21/08/09","18:50",0.0,26.5,78.7,990.6,253.7,1.8,4.4,209.1,0.00,22.5,26.7,"18:41:04",1
"21/08/09","19:00",0.0,26.7,78.2,991.1,242.7,2.5,8.5,239.1,0.00,22.6,26.5,"18:56:24",1
"21/08/09","19:10",0.0,26.8,77.2,991.1,259.0,2.6,5.7,235.0,0.00,22.5,26.6,"19:07:36",1
"21/08/09","19:20",0.0,26.9,76.6,991.5,249.5,2.5,6.4,243.5,0.00,22.5,26.3,"19:19:12",1
"21/08/09","19:30",0.0,27.0,75.8,991.8,253.8,3.1,6.7,259.7,0.00,22.4,26.6,"19:24:48",1
"21/08/09","19:40",0.0,27.0,75.7,992.0,261.1,2.1,5.4,212.4,0.00,22.4,26.3,"19:35:36",1
"21/08/09","19:50",0.0,26.9,75.8,992.2,253.3,2.3,5.0,231.2,0.00,22.3,26.3,"19:45:12",1
"21/08/09","20:00",0.0,26.9,75.5,992.5,255.2,3.1,8.6,223.6,0.00,22.2,26.4,"19:54:00",1
"21/08/09","20:10",0.0,27.0,75.4,992.5,253.5,2.8,10.6,234.3,0.00,22.3,26.2,"20:03:12",1
"21/08/09","20:20",0.0,26.8,75.7,992.7,257.4,2.3,5.6,246.4,0.00,22.2,26.4,"20:10:02",1
"21/08/09","20:30",0.0,26.9,75.7,992.7,254.8,3.4,7.5,239.4,0.00,22.3,26.4,"20:21:04",1
"21/08/09","20:40",0.0,26.8,75.8,993.0,253.9,2.7,5.7,241.0,0.00,22.2,26.2,"20:30:08",1
"21/08/09","20:50",0.0,26.8,76.0,993.0,248.9,3.0,6.2,224.6,0.00,22.3,26.2,"20:41:12",1
"21/08/09","21:00",0.0,26.8,76.1,993.2,263.2,2.1,4.4,315.5,0.00,22.3,26.3,"20:51:52",1
"21/08/09","21:10",0.0,26.7,76.6,993.7,262.1,1.8,4.4,248.0,0.00,22.3,26.2,"21:04:56",1
"21/08/09","21:20",0.0,26.6,76.9,993.7,268.0,1.6,4.2,350.2,0.00,22.3,26.1,"21:15:44",1
"21/08/09","21:30",0.0,26.5,76.9,994.4,268.2,2.2,4.9,239.7,0.00,22.2,26.2,"21:23:20",1
"21/08/09","21:40",0.0,26.4,76.7,993.7,271.6,2.1,4.5,240.7,0.00,22.0,26.1,"21:34:32",1
"21/08/09","21:50",0.0,26.5,76.7,993.9,298.8,1.5,4.2,323.3,0.00,22.1,26.2,"21:46:08",1
"21/08/09","22:00",0.0,26.5,76.6,994.4,275.5,2.1,5.4,239.9,0.00,22.1,26.1,"21:56:56",1
"21/08/09","22:10",0.0,26.5,76.5,994.4,287.9,1.8,4.8,347.5,0.00,22.1,26.1,"22:05:20",1
"21/08/09","22:20",0.0,26.3,77.2,994.1,270.4,1.6,3.2,246.4,0.00,22.0,26.1,"22:15:12",1
"21/08/09","22:30",0.0,26.3,77.5,994.4,269.9,1.6,3.2,240.1,0.00,22.1,26.2,"22:29:04",1
"21/08/09","22:40",0.0,26.2,77.7,994.8,292.6,1.5,2.9,213.1,0.00,22.0,26.1,"22:39:28",1
"21/08/09","22:50",0.2,26.1,78.4,994.8,301.7,1.5,3.9,250.0,0.00,22.1,26.1,"22:40:16",1
"21/08/09","23:00",0.8,25.3,81.1,995.1,267.1,1.2,3.6,241.5,0.00,21.9,26.1,"22:55:52",1
"21/08/09","23:10",0.6,24.8,83.3,995.1,281.9,0.8,2.1,314.4,0.00,21.8,26.2,"23:01:04",1
"21/08/09","23:20",0.2,24.6,84.8,995.6,307.3,1.0,3.2,248.9,0.00,21.9,25.8,"23:10:32",1
"21/08/09","23:30",0.0,24.4,86.0,995.6,331.5,1.2,2.7,352.3,0.00,21.9,25.9,"23:29:52",1
"21/08/09","23:40",0.0,24.3,86.9,995.6,329.2,1.2,2.1,337.5,0.00,22.0,26.1,"23:30:08",1
"21/08/09","23:50",0.2,24.3,87.6,995.6,303.1,1.1,2.5,248.4,0.00,22.1,25.9,"23:44:24",1
"21/08/09","24:00",0.0,24.3,87.9,995.8,289.3,1.3,2.6,270.7,0.00,22.2,26.1,"23:56:08",1
